sat.trackr.live / text

‹ back to catalog

FOREST-16 (SOWITASGOHT)

NORAD 68998 · 2026-100U

PAYLOAD ACTIVE UNKNOWN

§ Identity

Operator
Country
GREC
Launch date
2026-05-03
Launch site
AFWTR
Launch vehicle
Mass (kg)
RCS (m²)

External: N2YO · Heavens-Above · Gunter

§ Orbital elements

Epoch: 2026-09-19T22:54:28.507104Z

Period
96.46 min
Inclination
97.7258°
Eccentricity
0.0004882
Mean motion
14.92906448 rev/d
Perigee alt
585.5 km
Apogee alt
592.3 km
Semi-major
6,967.0 km
B*
6.7660e-5
RAAN
158.6986°
Arg perigee
92.0493°
Mean anomaly
268.1286°
Rev number
2,083

§ Raw data

FOREST-16 (SOWITASGOHT)1 68998U 26100U   26262.95449661  .00000646  00000+0  67660-4 0  99952 68998  97.7258 158.6986 0004882  92.0493 268.1286 14.92906448 20835

JSON: /api/v1/satellites/68998 · /tle

For live sub-satellite position, see the globe view (requires WebGL).

§ Visibility from observer

Set your observer location to see the next 7 days of passes ≥ 10°. The values pass through the URL so the page stays shareable.

No JS? Fill the form by hand. The geolocation button needs JavaScript.